Torna al catalogo

STARLINK-31621

AttivoComunicazioniVLEO
NORAD 59465·PAYLOAD·🇺🇸 United States

Lanciato Apr 10, 2024 da Cape Canaveral Space Force Station

Loading…

Prossimi Passaggi (prossime 24 ore)

TLE

AggiornatoSource: CelesTrak SupGP

Epoca: Sep 15, 2026, 02:46 UTC

1 59465C 24068L   26258.11576389 -.00025278  00000+0 -91546-3 0  2583
2 59465  43.0043  44.8635 0001512 270.3506  19.0566 15.27595134    17

Traccia STARLINK-31621 in tempo reale con AllMySat

Download on the App Store